STARLINK-1905, 46746

Orbit data source: Space-Track

STARLINK-1905, 46746 is a payload satellite owned by SpaceX/Seattle (US) in LEO that was launched on Sat, 24 Oct 2020 UTC via an FALCON 9 launch vehicle from the Air Force Eastern Test Range (AFETR). Payload-class satellites include a variety of spacecraft equipped with specific instruments for various scientific and technological missions. These include communications satellites like Starlink; space stations such as the ISS; scientific satellites like the Hubble; Earth observation satellites from companies like Planet Labs, Umbra, and HawkEye 360; GPS; miniature CubeSats for education and research; and military/defense satellites.

Loading next visibility...
Identifier
46746, 2020-074H
Orbit
LEO
Country
Flag of USUS
Related business
Manufacturer
SpaceX/Seattle
Mission
Operational Commercial Communications
Bus & Motor
STARLINK, Unknown motor
Mass
260 kg wet, ~248 kg dry
Launch date (UTC)
2020-10-24 (5 years ago)
Launch vehicle
FALCON 9
Launch site
Air Force Eastern Test Range (AFETR)
Object type
Payload
Rocket body
Debris
Shape & HBR
Box + 1 Pan, 10.1 m
Radar Cross Section
13.562 m², Large (>1 m²)

Expand to show TLE details & history
Last TLE update: 16 hours ago

TLE from 16 hours ago
0 STARLINK-1905
1 46746U 20074H   25286.66959159  .00001648  00000-0  12952-3 0  9994
2 46746  53.0533 261.6169 0001493  91.2113 268.9047 15.06393645274510
Epoch: 2025-10-13T16:04Z
TLE epoch observation values (Epoch: 2025-10-13T16:04:12.713Z)
Latitude
-0.00002°
Longitude
-1.90513°
Altitude
548.13 km
Speed
7.589 km/s
True Right ascension
17h 26m 28s
True Declination
0° 00' 00"
Sunlit
Object was in daylight at epoch
Visualization orbit readout
Latitude
Unknown
Longitude
Unknown
Altitude
Unknown
Speed
Unknown
Apparent Right ascension
Unknown
Apparent Declination
Unknown
Sunlit
N/A
Visualization observer readout
Local Sidereal Time
02:36:59
Azimuth
Unknown
Elevation
Unknown
Doppler factor
Unknown
Orbital elements
Apogee altitude
548.536 km
Perigee altitude
546.468 km
Semi-major axis
6,925.639 km
Eccentricity
0.00015
Inclination
53.0533°
RAAN
261.6169°
Arg. of periapsis
91.2113°
True anomaly
268.88759°
Mean anomaly
268.9047°
Eccentric anomaly
268.89615°
Mean motion
3.76577 °/min
Orbital period
95.6 mins
BSTAR
0.00012952
Loading maneuver chart data...
Computing Atmospheric mass density...
Loading historical data...
Loading historical data...
Loading historical data...
Loading historical data...
Loading historical data...
Loading historical data...
Loading historical data...

Documentation

Showing up to 5 results
|